OneWeb SL0695

operational
NORAD ID: 61602 Int'l Des: 2024-188 Owner: ONEWEBE Country: UK Constellation: oneweb
LEOCIRCULARPOLARONEWEB_TYPE

Über OneWeb SL0695

Beschreibung wird geladen...

Live-Position

3D-Globus wird geladen...

Nächste Überflüge

Höhenverlauf

Altitude vs Time

uPlot chart will show altitude changes over time

Zweizeiliger Elementsatz

1 61602U 24188J 25299.41917987 .00000488 00000-0 13408-2 0 9999
2 61602 87.8834 67.6378 0002095 88.1403 271.9965 13.11418420 53824
Epoch: 26. Okt. 2025 • Age: 8 hours

Aktueller Status

Höhe 1228.8 km
Geschwindigkeit 7.25 km/s
Subsatellitenpunkt 73.06°N, 63.63°W
Startdatum 20. Okt. 2024
Alter 1 years
Typ internet

Technische Details

Klassifizierung Payload
Masse 148.00 kg
Trockenmasse 140.00 kg
Gesamtmasse 148.00 kg
Länge 1.30 m
Durchmesser 1.00 m
Spannweite 5.00 m
Form Trapezoid+2 pan
Hersteller ONEWUS
Bus-Typ ARROW
Phasenstatus In Orbit
Besitzer/Staat ONEWEBE/UK

Große Konstellationen

Loading constellations...